Location: Unspecified
(0.0000°N, 0.0000°E)
Time: 13:49:10
(UTC+00:00)

Hubble Space Telescope - Pass Details

Date: 16 April 2021
Orbit: 535 x 539 km, 28.5° (Epoch: 16 April)

Event Time Altitude Azimuth Distance (km) Brightness Sun altitude
Rises 19:40:49 0° 277° (W) 2,669 5.7 -24.8°
Reaches altitude 10° 19:44:18 10° 307° (NW) 1,776 4.2 -25.7°
Maximum altitude 19:46:03 12° 333° (NNW) 1,627 3.6 -26.1°
Drops below altitude 10° 19:47:48 10° 358° (N) 1,773 3.5 -26.5°
Enters shadow 19:47:56 10° 360° (N) 1,794 3.5 -26.6°
